Back to catalog

STARLINK-32089

AliveCommunicationsVLEO
NORAD 59687·PAYLOAD·🇺🇸 United States

Launched May 8, 2024 from Cape Canaveral Space Force Station

Loading…

Next Passes (next 24 hours)

TLE

FreshSource: CelesTrak SupGP

Epoch: Sep 14, 2026, 21:26 UTC

1 59687C 24086F   26257.89354167  .00030001  00000+0  10870-2 0  2578
2 59687  43.0004  71.1944 0001424 275.5804 332.8717 15.27553091    16

Track STARLINK-32089 in real time with AllMySat

Download on the App Store